�������l�o���
Date,Time,MP-1(��Sv/h),MP-2(��Sv/h),MP-3(��Sv/h),MP-4(��Sv/h),MP-5(��Sv/h),MP-6(��Sv/h),MP-7(��Sv/h),MP-8(��Sv/h),����,����(m/s),���J
2020/01/21,00:00,0.706,1.001,0.662,1.251,0.880,0.401,0.705,0.670,��쐼,1.1,�L
2020/01/21,00:10,0.704,1.002,0.662,1.251,0.883,0.402,0.706,0.670,��,3.0,��
2020/01/21,00:20,0.706,1.001,0.662,1.251,0.882,0.401,0.705,0.670,��쐼,3.1,��
2020/01/21,00:30,0.704,1.002,0.660,1.251,0.883,0.401,0.706,0.671,��,3.1,��
2020/01/21,00:40,0.703,1.000,0.661,1.251,0.884,0.401,0.704,0.672,��,2.4,��
2020/01/21,00:50,0.704,1.000,0.662,1.251,0.884,0.401,0.705,0.670,���쐼,2.0,�L
2020/01/21,01:00,0.704,1.002,0.661,1.252,0.881,0.402,0.705,0.670,��,3.5,��
2020/01/21,01:10,0.704,1.000,0.662,1.250,0.883,0.403,0.705,0.671,���쐼,4.1,��
2020/01/21,01:20,0.704,1.003,0.663,1.252,0.882,0.402,0.704,0.669,���쐼,3.5,��
2020/01/21,01:30,0.706,1.001,0.662,1.252,0.883,0.400,0.705,0.668,���쐼,6.1,��
2020/01/21,01:40,0.704,1.001,0.662,1.250,0.882,0.402,0.705,0.670,���쐼,6.0,��
2020/01/21,01:50,0.706,1.002,0.662,1.255,0.884,0.401,0.706,0.670,��,7.1,��
2020/01/21,02:00,0.704,1.001,0.661,1.252,0.885,0.400,0.706,0.671,���쐼,6.3,��
2020/01/21,02:10,0.703,1.002,0.662,1.249,0.882,0.402,0.707,0.670,��,3.9,��
2020/01/21,02:20,0.705,1.003,0.662,1.249,0.882,0.401,0.705,0.668,��,7.1,��
2020/01/21,02:30,0.705,1.000,0.661,1.252,0.882,0.401,0.706,0.671,���쐼,8.8,��
2020/01/21,02:40,0.705,1.002,0.661,1.253,0.884,0.403,0.706,0.671,���쐼,7.4,�L
2020/01/21,02:50,0.704,1.002,0.662,1.254,0.883,0.402,0.706,0.670,��,10.5,�L
2020/01/21,03:00,0.703,1.000,0.661,1.252,0.881,0.403,0.706,0.669,��,8.9,��
2020/01/21,03:10,0.706,1.001,0.660,1.251,0.884,0.402,0.707,0.670,��,8.5,��
2020/01/21,03:20,0.704,1.002,0.662,1.252,0.887,0.402,0.708,0.670,��,9.9,��
2020/01/21,03:30,0.705,1.003,0.661,1.251,0.886,0.401,0.705,0.671,���쐼,8.8,�L
2020/01/21,03:40,0.705,1.003,0.661,1.255,0.884,0.404,0.708,0.671,���쐼,9.4,��
2020/01/21,03:50,0.705,1.002,0.661,1.256,0.882,0.403,0.706,0.672,���쐼,8.5,��
2020/01/21,04:00,0.703,1.001,0.663,1.253,0.884,0.402,0.707,0.670,���쐼,9.1,�L
2020/01/21,04:10,0.704,1.003,0.665,1.252,0.882,0.404,0.707,0.672,���쐼,8.9,�L
2020/01/21,04:20,0.706,1.002,0.662,1.253,0.883,0.402,0.707,0.671,��,9.1,�L
2020/01/21,04:30,0.706,1.003,0.662,1.254,0.885,0.404,0.706,0.673,���쐼,9.3,�L
2020/01/21,04:40,0.704,1.001,0.665,1.253,0.883,0.404,0.708,0.670,���쐼,9.7,�L
2020/01/21,04:50,0.705,1.001,0.663,1.253,0.884,0.404,0.705,0.670,��,6.4,��
2020/01/21,05:00,0.704,1.005,0.662,1.254,0.884,0.403,0.708,0.671,���k��,7.7,�L
2020/01/21,05:10,0.706,1.004,0.661,1.253,0.883,0.405,0.708,0.671,��,6.7,�L
2020/01/21,05:20,0.705,1.004,0.663,1.256,0.885,0.403,0.706,0.671,���k��,9.4,�L
2020/01/21,05:30,0.705,1.002,0.664,1.254,0.882,0.404,0.706,0.670,���k��,9.1,�L
2020/01/21,05:40,0.707,1.002,0.663,1.255,0.885,0.406,0.707,0.671,���k��,10.5,�L
2020/01/21,05:50,0.707,1.005,0.666,1.257,0.884,0.409,0.707,0.670,���k��,8.8,�L
2020/01/21,06:00,0.707,1.007,0.666,1.260,0.883,0.409,0.707,0.671,�k��,8.5,�L
2020/01/21,06:10,0.707,1.003,0.666,1.257,0.882,0.407,0.705,0.671,�k��,5.6,��
2020/01/21,06:20,0.707,1.001,0.666,1.259,0.883,0.405,0.704,0.671,�k��,4.9,��
2020/01/21,06:30,0.705,0.999,0.662,1.255,0.882,0.405,0.705,0.671,�k�k��,4.5,��
2020/01/21,06:40,0.706,1.002,0.661,1.256,0.880,0.406,0.705,0.671,�k��,3.8,��
2020/01/21,06:50,0.705,0.999,0.664,1.253,0.880,0.406,0.705,0.670,�k��,5.5,��
2020/01/21,07:00,0.703,0.997,0.663,1.252,0.879,0.404,0.705,0.671,���k��,6.4,��
2020/01/21,07:10,0.703,1.000,0.660,1.251,0.879,0.404,0.704,0.670,�k��,5.5,��
2020/01/21,07:20,0.703,0.999,0.658,1.252,0.877,0.404,0.706,0.670,���k��,6.4,��
2020/01/21,07:30,0.702,0.998,0.659,1.249,0.879,0.403,0.704,0.670,���k��,5.8,��
2020/01/21,07:40,0.701,0.996,0.659,1.251,0.878,0.401,0.704,0.670,�k��,4.2,��
2020/01/21,07:50,0.700,0.997,0.657,1.251,0.878,0.402,0.705,0.669,�k��,4.5,��
2020/01/21,08:00,0.702,0.996,0.658,1.250,0.876,0.402,0.704,0.671,�k��,3.9,��
2020/01/21,08:10,0.703,0.995,0.657,1.247,0.877,0.400,0.702,0.670,�k��,5.3,��
2020/01/21,08:20,0.700,0.999,0.657,1.248,0.876,0.401,0.703,0.668,�k��,5.2,��
2020/01/21,08:30,0.700,0.995,0.657,1.249,0.877,0.400,0.703,0.670,�k��,3.4,��
2020/01/21,08:40,0.700,0.997,0.656,1.246,0.878,0.400,0.702,0.669,�k��,4.9,��
2020/01/21,08:50,0.700,0.995,0.657,1.249,0.879,0.399,0.704,0.668,�k��,5.0,��
2020/01/21,09:00,0.702,0.996,0.656,1.248,0.877,0.397,0.703,0.669,���k��,5.3,��
2020/01/21,09:10,0.702,0.996,0.656,1.249,0.877,0.390,0.704,0.669,���k��,8.3,��
2020/01/21,09:20,0.702,0.995,0.656,1.251,0.878,0.388,0.704,0.670,�k��,10.1,��
2020/01/21,09:30,0.702,0.996,0.657,1.249,0.876,0.388,0.706,0.668,�k��,10.2,��
2020/01/21,09:40,0.700,0.998,0.657,1.248,0.878,0.388,0.705,0.669,�k��,7.7,��
2020/01/21,09:50,0.704,0.994,0.657,1.250,0.878,0.388,0.705,0.669,���k��,8.0,��
2020/01/21,10:00,0.701,0.995,0.656,1.248,0.877,0.385,0.705,0.671,���k��,9.1,��
2020/01/21,10:10,0.700,0.997,0.657,1.252,0.877,0.386,0.704,0.669,���k��,8.8,��
2020/01/21,10:20,0.703,0.996,0.656,1.253,0.879,0.389,0.704,0.669,���k��,10.2,��
2020/01/21,10:30,0.702,0.995,0.660,1.250,0.878,0.383,0.706,0.671,�k��,10.4,��
2020/01/21,10:40,0.704,0.997,0.659,1.249,0.879,0.383,0.705,0.670,���k��,8.9,��
2020/01/21,10:50,0.703,1.000,0.660,1.254,0.881,0.383,0.705,0.669,�k��,7.5,��
2020/01/21,11:00,0.700,0.999,0.659,1.251,0.879,0.382,0.706,0.670,���k��,9.9,��
2020/01/21,11:10,0.702,1.000,0.653,1.252,0.878,0.383,0.704,0.670,���k��,8.2,��
2020/01/21,11:20,0.701,0.999,0.657,1.253,0.880,0.383,0.703,0.671,���k��,10.2,��
2020/01/21,11:30,0.704,0.997,0.657,1.254,0.879,0.387,0.704,0.670,���k��,9.7,��
2020/01/21,11:40,0.705,1.001,0.653,1.253,0.882,0.387,0.705,0.670,���k��,11.2,��
2020/01/21,11:50,0.703,0.997,0.656,1.252,0.883,0.390,0.704,0.671,���k��,10.5,��
2020/01/21,12:00,0.706,0.997,0.659,1.252,0.882,0.392,0.705,0.670,���k��,11.3,��
2020/01/21,12:10,0.703,1.001,0.660,1.253,0.881,0.392,0.706,0.672,�k��,7.1,��
2020/01/21,12:20,0.704,1.002,0.658,1.254,0.881,0.393,0.704,0.671,���k��,8.8,��
2020/01/21,12:30,0.706,1.002,0.657,1.253,0.883,0.394,0.706,0.670,�k��,8.0,��
2020/01/21,12:40,0.704,1.000,0.658,1.255,0.881,0.392,0.706,0.672,�k��,7.7,��
2020/01/21,12:50,0.705,1.001,0.657,1.256,0.882,0.392,0.705,0.670,�k��,8.2,��
2020/01/21,13:00,0.707,1.002,0.658,1.255,0.883,0.392,0.707,0.671,�k��,7.4,��
2020/01/21,13:10,0.706,1.005,0.656,1.252,0.880,0.390,0.707,0.670,�k��,6.4,��
2020/01/21,13:20,0.705,1.002,0.659,1.255,0.881,0.387,0.706,0.670,�k��,7.2,��
2020/01/21,13:30,0.705,1.001,0.658,1.253,0.881,0.384,0.706,0.670,�k��,6.3,��
2020/01/21,13:40,0.705,1.002,0.659,1.254,0.880,0.387,0.707,0.669,�k��,6.7,��
2020/01/21,13:50,0.703,1.002,0.658,1.255,0.879,0.385,0.705,0.669,�k��,7.2,��
2020/01/21,14:00,0.703,1.000,0.659,1.255,0.882,0.384,0.706,0.671,�k�k��,7.1,��
2020/01/21,14:10,0.701,1.001,0.658,1.254,0.883,0.384,0.706,0.670,�k�k��,8.5,��
2020/01/21,14:20,0.702,0.999,0.659,1.254,0.884,0.384,0.704,0.670,�k�k��,7.4,��
2020/01/21,14:30,0.703,1.000,0.659,1.254,0.883,0.382,0.702,0.672,�k��,8.5,��
2020/01/21,14:40,0.703,1.002,0.661,1.255,0.884,0.384,0.706,0.671,�k��,9.1,��
2020/01/21,14:50,0.703,1.002,0.659,1.253,0.883,0.386,0.703,0.672,�k��,7.1,��
2020/01/21,15:00,0.702,1.000,0.659,1.252,0.884,0.386,0.702,0.671,�k��,7.5,��
2020/01/21,15:10,0.702,1.003,0.660,1.255,0.884,0.389,0.703,0.671,�k��,8.2,��
2020/01/21,15:20,0.702,1.004,0.659,1.255,0.884,0.388,0.705,0.671,�k��,9.6,��
2020/01/21,15:30,0.702,1.003,0.660,1.257,0.882,0.392,0.704,0.671,�k��,8.0,��
2020/01/21,15:40,0.701,1.005,0.660,1.255,0.883,0.402,0.704,0.671,�k��,8.0,��
2020/01/21,15:50,0.703,1.004,0.661,1.254,0.885,0.400,0.704,0.670,�k��,7.1,��
2020/01/21,16:00,0.704,1.005,0.661,1.253,0.883,0.401,0.704,0.671,�k��,7.2,��
2020/01/21,16:10,0.702,1.006,0.661,1.255,0.883,0.402,0.706,0.670,�k��,6.3,��
2020/01/21,16:20,0.704,1.005,0.661,1.256,0.884,0.400,0.705,0.669,�k�k��,4.9,��
2020/01/21,16:30,0.700,1.006,0.662,1.256,0.883,0.401,0.705,0.671,�k��,4.6,��
2020/01/21,16:40,0.702,1.003,0.660,1.253,0.883,0.401,0.707,0.669,�k��,6.3,��
2020/01/21,16:50,0.699,1.006,0.661,1.257,0.883,0.402,0.704,0.670,�k��,5.2,��
2020/01/21,17:00,0.701,1.005,0.661,1.254,0.884,0.401,0.706,0.672,�k��,5.8,��
2020/01/21,17:10,0.701,1.006,0.659,1.255,0.883,0.400,0.705,0.670,�k��,6.3,��
2020/01/21,17:20,0.703,1.004,0.661,1.254,0.881,0.400,0.704,0.669,�k��,5.5,��
2020/01/21,17:30,0.702,1.002,0.661,1.254,0.883,0.401,0.704,0.670,�k��,6.0,��
2020/01/21,17:40,0.701,1.006,0.660,1.255,0.882,0.401,0.705,0.670,�k��,6.1,��
2020/01/21,17:50,0.702,1.004,0.661,1.255,0.880,0.400,0.704,0.670,�k��,6.0,��
2020/01/21,18:00,0.701,1.007,0.661,1.254,0.883,0.401,0.705,0.669,�k��,4.0,��
2020/01/21,18:10,0.702,1.007,0.658,1.253,0.882,0.399,0.705,0.670,�k�k��,4.1,��
2020/01/21,18:20,0.703,1.006,0.662,1.252,0.884,0.400,0.703,0.670,�k�k��,4.6,��
2020/01/21,18:30,0.699,1.005,0.660,1.253,0.882,0.399,0.702,0.669,�k��,5.6,��
2020/01/21,18:40,0.700,1.003,0.661,1.254,0.882,0.401,0.702,0.670,�k��,4.3,��
2020/01/21,18:50,0.700,1.002,0.660,1.254,0.882,0.399,0.703,0.671,�k��,4.1,��
2020/01/21,19:00,0.700,1.003,0.661,1.251,0.883,0.399,0.702,0.670,�k��,3.5,��
2020/01/21,19:10,0.701,1.002,0.660,1.254,0.882,0.401,0.704,0.668,�k��,3.2,��
2020/01/21,19:20,0.699,1.004,0.659,1.254,0.883,0.399,0.703,0.669,�k��,3.8,��
2020/01/21,19:30,0.701,1.005,0.660,1.256,0.881,0.400,0.703,0.668,�k��,4.1,��
2020/01/21,19:40,0.700,1.003,0.658,1.255,0.881,0.399,0.704,0.669,�k��,5.0,��
2020/01/21,19:50,0.700,1.002,0.661,1.255,0.883,0.399,0.705,0.670,�k��,5.8,��
2020/01/21,20:00,0.700,1.004,0.660,1.254,0.883,0.399,0.704,0.669,�k��,6.1,��
2020/01/21,20:10,0.700,1.004,0.660,1.252,0.883,0.399,0.704,0.669,�k��,5.2,��
2020/01/21,20:20,0.700,1.003,0.660,1.255,0.880,0.398,0.704,0.668,���k��,5.0,��
2020/01/21,20:30,0.698,1.003,0.659,1.254,0.883,0.399,0.704,0.668,��,4.3,��
2020/01/21,20:40,0.701,1.003,0.659,1.253,0.882,0.399,0.702,0.669,��,2.3,��
2020/01/21,20:50,0.700,1.004,0.660,1.254,0.883,0.400,0.702,0.670,���쐼,1.8,��
2020/01/21,21:00,0.700,1.001,0.659,1.253,0.881,0.400,0.702,0.669,���k��,1.8,��
2020/01/21,21:10,0.700,1.003,0.658,1.253,0.882,0.400,0.702,0.667,���k��,2.0,��
2020/01/21,21:20,0.699,1.004,0.659,1.253,0.883,0.400,0.703,0.668,���k��,1.9,��
2020/01/21,21:30,0.700,1.001,0.661,1.254,0.880,0.400,0.704,0.670,��,1.7,��
2020/01/21,21:40,0.699,1.003,0.660,1.253,0.882,0.399,0.703,0.668,�쐼,2.6,��
2020/01/21,21:50,0.699,1.002,0.658,1.251,0.881,0.399,0.702,0.670,��쐼,2.7,��
2020/01/21,22:00,0.701,1.002,0.659,1.254,0.881,0.399,0.703,0.668,�쐼,2.3,��
2020/01/21,22:10,0.699,1.003,0.658,1.255,0.882,0.398,0.701,0.669,��쐼,1.2,��
2020/01/21,22:20,0.698,1.002,0.659,1.253,0.882,0.398,0.702,0.668,�쐼,1.1,��
2020/01/21,22:30,0.698,1.002,0.658,1.253,0.882,0.398,0.702,0.670,��,3.9,��
2020/01/21,22:40,0.697,1.001,0.659,1.255,0.882,0.399,0.704,0.670,��,4.2,��
2020/01/21,22:50,0.697,1.000,0.659,1.252,0.882,0.400,0.703,0.669,���k��,5.3,��
2020/01/21,23:00,0.698,1.001,0.659,1.252,0.882,0.399,0.702,0.668,��,4.1,��
2020/01/21,23:10,0.699,1.002,0.660,1.255,0.883,0.400,0.703,0.669,�쐼,2.8,��
2020/01/21,23:20,0.699,1.002,0.660,1.253,0.881,0.398,0.703,0.668,�쐼,1.7,��
2020/01/21,23:30,0.699,1.002,0.660,1.253,0.882,0.399,0.702,0.668,���쐼,1.4,��
2020/01/21,23:40,0.698,1.001,0.658,1.255,0.879,0.400,0.701,0.668,��,3.3,��
2020/01/21,23:50,0.699,1.002,0.660,1.253,0.880,0.398,0.703,0.668,��,2.8,��
